Location: Lussas
(44.6119°N, 4.4726°E)
Time: 16:15:32
(UTC+00:00)

BREEZE-M DEB (TANK) - Pass Details

Date: 26 November 2020
Orbit: 410 x 14910 km, 45.9° (Epoch: 28 January)

Event Time Altitude Azimuth Distance (km) Brightness Sun altitude
Exits shadow 05:25:30 30° 254° (WSW) 779 3.1 -15.3°
Maximum altitude 05:26:45 88° 168° (SSE) 459 2.4 -15.1°
Drops below altitude 10° 05:30:52 10° 77° (ENE) 2,236 6.9 -14.4°
Sets 05:34:27 0° 77° (ENE) 4,019 8.4 -13.7°
